Location: Poughquag
(41.6090°N, 73.6820°W)
Time: 01:32:47
(UTC-04:00)

Vanguard 1 Rocket - Pass Details

Date: 29 May 2020
Orbit: 653 x 4224 km, 34.3° (Epoch: 06 July)

Event Time Altitude Azimuth Distance (km) Brightness Sun altitude
Rises 05:25:40 0° 270° (W) 5,915 11.0 -0.6°
Reaches altitude 10° 05:30:31 10° 265° (W) 4,307 10.3 0.2°
Maximum altitude 05:40:02 44° 198° (SSW) 1,574 8.4 1.8°
Drops below altitude 10° 05:45:29 10° 127° (SE) 2,490 10.1 2.7°
Sets 05:47:35 0° 120° (ESE) 3,237 10.8 3.0°
